Regional Weather Roundup
Issued by NWS

Home | Current Version | Previous Version | Graphics & Text | Print | Product List | Glossary On
Versions: 1 2 3 4 5 6 7 8 9 10 11 12 13 14 15 16 17 18 19 20 21 22 23 24 25 26 27 28 29 30 31 32 33 34 35 36 37 38 39 40 41 42 43 44 45 46 47 48 49 50
000
ASUS43 KLOT 102358
RWRIL

ILLINOIS REGIONAL WEATHER ROUNDUP
NATIONAL WEATHER SERVICE CHICAGO/ROMEOVILLE IL
700 PM CDT THU JUL 10 2014

NOTE: "FAIR" INDICATES FEW OR NO CLOUDS BELOW 12,000 FEET WITH NO
SIGNIFICANT WEATHER AND/OR OBSTRUCTIONS TO VISIBILITY.

* THESE STATIONS ARE NOT UNDER NWS QUALITY CONTROL. THEY ALSO MAY NOT
  REPORT WEATHER SUCH AS PRECIPITATION OR FOG.

ILZ001-002-007-009-015-016-024-110100-
NORTHWEST ILLINOIS

CITY           SKY/WX    TMP DP  RH WIND       PRES   REMARKS
MOLINE         SUNNY     78  59  51 SE7       30.09S
6HR MIN TEMP:  78; 6HR MAX TEMP:  83;

$$

ILZ003-004-008-010-011-017-018-110100-
NORTH CENTRAL ILLINOIS

CITY           SKY/WX    TMP DP  RH WIND       PRES   REMARKS
ROCKFORD       NOT AVBL
$$

ILZ005-006-012>014-019>023-110100-
NORTHEAST ILLINOIS

CITY           SKY/WX    TMP DP  RH WIND       PRES   REMARKS
CHICAGO-OHARE  MOSUNNY   74  50  42 E12       30.14S
6HR MIN TEMP:  74; 6HR MAX TEMP:  79;

CHICAGO-MIDWAY MOSUNNY   75  50  41 E10       30.15S
6HR MIN TEMP:  74; 6HR MAX TEMP:  78;

AURORA         MOSUNNY   77  57  50 SE10      30.13S
6HR MIN TEMP:  76; 6HR MAX TEMP:  80;

WAUKEGAN       SUNNY     68  53  58 SE7       30.15R
6HR MIN TEMP:  68; 6HR MAX TEMP:  71;

DUPAGE AIRPORT SUNNY     76  55  48 SE9       30.13S
6HR MIN TEMP:  75; 6HR MAX TEMP:  82;

WHEELING       SUNNY     73  52  47 E8        30.16S
6HR MIN TEMP:  73; 6HR MAX TEMP:  77;

NORTHERLY ISL    N/A     69  55  60 E6          N/A
$$

LMZ740>746-110100-
SOUTHERN LAKE MICHIGAN

STATION/POSITION SKY/WX   TEMP    WIND        PRES    VSBY  WAVE
                          AIR SEA DIR/SP/G                  HT/PER
                          (F)     (DEG/KT/KT) (MB)    (MI)  (FT/S)
SOUTHERN BUOY              64 63  130/  2/  2 1021.5F         0
WAUKEGAN HARBOR            69     150/  7/  8 1022.0F
HARRISON CRIB              69     100/ 10/ 11   N/A
BURNHAM HARBOR             69     100/  7/ 11   N/A
CALUMET HARBOR             69      80/  6/  8 1021.9R
MICHIGAN CITY              69      20/  9/ 11   N/A
$$

ILZ025>027-034>036-040-047-049-050-058-095>099-110100-
WEST-CENTRAL ILLINOIS

CITY           SKY/WX    TMP DP  RH WIND       PRES   REMARKS
$$

ILZ028>032-037-038-041>044-048-051>054-059>061-110100-
CENTRAL ILLINOIS

CITY           SKY/WX    TMP DP  RH WIND       PRES   REMARKS
PEORIA         NOT AVBL
SPRINGFIELD    SUNNY     79  54  41 E12       30.12S
6HR MIN TEMP:  79; 6HR MAX TEMP:  82;

TAYLORVILLE    NOT AVBL
$$

ILZ033-039-045-046-055>057-062-063-110100-
EAST-CENTRAL ILLINOIS

CITY           SKY/WX    TMP DP  RH WIND       PRES   REMARKS
CHAMPAIGN      SUNNY     76  56  49 E8        30.14S
MATTOON        SUNNY     77  53  43 NE6       30.12R
$$

ILZ079-100>102-110100-
SOUTHWEST ILLINOIS

CITY           SKY/WX    TMP DP  RH WIND       PRES   REMARKS
ALTON          MOSUNNY   77  61  57 E6        30.10S
CAHOKIA*       SUNNY     82  56  40 E7        30.09R HX  82
$$

ILZ064>066-069>071-074>076-080>082-084>086-088>090-092>094-110100-
SOUTH-CENTRAL ILLINOIS

CITY           SKY/WX    TMP DP  RH WIND       PRES   REMARKS
CARBONDALE     PTSUNNY   79  66  64 CALM      30.08S HX  81
6HR MIN TEMP:  79; 6HR MAX TEMP:  83;

$$

ILZ067-068-072-073-078-083-087-091-110100-
SOUTHEAST ILLINOIS

CITY           SKY/WX    TMP DP  RH WIND       PRES   REMARKS
$$

ABBREVIATIONS USED IN REMARKS
   TC - TEMPERATURE IN CELSIUS
  WCI - WIND CHILL INDEX
   HX - HEAT INDEX
  VSB - VISIBILITY
$$



USA.gov is the U.S. government's official web portal to all federal, state and local government web resources and services.